Location: Minneapolis
(45.0000°N, 93.0000°W)
Time: 08:14:33
(UTC-05:00)

ISS - Pass Details

Date: 15 March 2018
Orbit: 403 x 408 km, 51.6° (Epoch: 22 September)

Event Time Altitude Azimuth Distance (km) Brightness Sun altitude
Exits shadow 04:43:25 19° 53° (NE) 1,061 -1.0 -28.3°
Drops below altitude 10° 04:44:46 10° 70° (ENE) 1,486 0.0 -28.1°
Sets 04:47:03 0° 83° (E) 2,343 1.1 -27.7°
